Location: PSU-Greenbush Astrophysical Observatory
(37.5140°N, 94.9880°W)
Time: 12:42:11
(UTC-06:00)

Altair - Pass Details

Date: 02 February 2020
Orbit: 1502 x 1682 km, 47.2° (Epoch: 25 February)

Event Time Altitude Azimuth Distance (km) Brightness Sun altitude
Rises 04:16:08 0° 191° (S) 4,746 - -37.3°
Exits shadow 04:18:07 - 186° (S) 4,216 9.7 -36.9°
Reaches altitude 10° 04:19:48 10° 180° (S) 3,794 9.5 -36.5°
Maximum altitude 04:27:26 27° 127° (SE) 2,750 9.1 -35.0°
Drops below altitude 10° 04:35:15 10° 75° (ENE) 3,910 10.4 -33.5°
Sets 04:39:04 0° 64° (ENE) 4,918 11.1 -32.7°
